Tracking 35275 objects as of 8-Sep-2026
HD Live streaming from Space Station
objects crossing your sky now

COSMOS 1591 DEB


COSMOS 1591 DEB is no longer on orbit


NORAD ID: 15296
Int'l Code: 1984-092H
Launch date: August 30, 1984
Source: Commonwealth of Independent States (former USSR) (CIS)
Launch site: PLESETSK MISSILE AND SPACE COMPLEX (PKMTR)
Decay date: 1984-09-15

Note: This is SATELLITE DEBRIS
Your satellite tracking list
Your tracking list is empty




NASA's NSSDC Master Catalog

Two Line Element Set (TLE):
1 15296U 84092  H 84259.67853961  .18966114 -29158-5 +15967-1 0  9995
2 15296 082.3065 139.0991 0051133 308.8915 050.7823 16.10635690002619
Source of the keplerian elements: AFSPC